View from above orbital plane
|
View from above satellite
|
Ground track
|
The orbit data is extracted from the following two-line orbital elements,
1 40908U 15049K 22179.04945398 .00002635 00000-0 14096-3 0 9992
2 40908 97.5156 179.5266 0014909 347.0112 85.2979 15.15856675374095
Epoch (UTC): | 28 June 2022 01:11:12 |
Eccentricity: | 0.0014909 |
inclination: | 97.5156° |
perigee height: | 508 km |
apogee height: | 528 km |
right ascension of ascending node: | 179.5266° |
argument of perigee: | 347.0112° |
revolutions per day: | 15.15856675 |
mean anomaly at epoch: | 85.2979° |
orbit number at epoch: | 37409 |
The dashed part of the orbit path shows where the satellite is in the earth's shadow,
|
|